Погода в Кендале

Великобритания     54°19′33″N   2°44′33″W
темп.,
°C
ветер,
м/с
пор.,
м/с
влажн.,
%
обл.,
%
осадки,
мм/ч
давл.,
гПа
погр.,
м
4 марта, чт
чт400:00+3св3483100 0.0 1027168
03:00+3св258098 0.0 1027281
06:00+3ссв348499 0.0 1026215
09:00+4св487898 0.0 1027777
12:00+7всв577094 0.1 10281032
15:00+5св71075100 0.1 1029866
18:00+2св597271 0.1 1029442
21:00+1св487530 0.0 1031300
5 марта, пт
пт500:00−1ссв348424 0.0 1032118
03:000ссв347657 0.0 1032117
06:000св237359 0.0 103385
09:00+2св246316 0.0 1034536
12:00+5в225431 0.0 10351093
15:00+6юв225439 0.0 10341060
18:00+1ююв347538 0.0 1034103
21:00−1в12787 0.0 103547
6 марта, сб
сб600:00−1в11819 0.0 103542
03:00−1вюв118317 0.0 103442
06:00−1ююв118435 0.0 103487
09:00+2ююз247080 0.0 1033373
12:00+3юз346788 0.0 1032659
15:00+3зюз4571100 0.0 1030733
18:00+2ююз2479100 0.0 1029194
21:00+2ююз2579100 0.0 1028260
7 марта, вс
вс700:00+2ююз357899 0.0 1027296
03:00+2ю3589100 0.3 1025277
06:00+2ю4796100 1.6 1024321
09:00+3ю3594100 1.4 1023254
12:00+4ю3494100 1.6 1023264
15:00+5ююз3598100 0.1 1021208
18:00+5юз239798 0.2 1021104
21:00+4ююз229897 0.1 102239
8 марта, пн
пн800:00+4юз249792 0.2 1021144
03:00+4ююв229694 0.0 102076
06:00+4ююв119397 0.0 102041
09:00+4ююв1290100 0.1 1019157
12:00+6ю259198 0.8 1018289
15:00+5ююв3995100 1.8 1016370
18:00+6ююз51298100 2.8 1015506
21:00+6ю51197100 0.6 1014426